Flag Weather past 2 weeks in Harrisburg, Pennsylvania, U.S.A.

Now
33 °F

Overcast.


Feels Like: 27 °F
Forecast: 29 / 38 °F
Wind: 7 mph from West

Location: Capital City Airport

Current Time: Nov 27, 2014 at 8:36:09 AM

Latest Report: Nov 27, 2014 at 7:56 AM


Visibility: 10 mi

Pressure: 30.05 "Hg

Humidity: 85%

Dew point: 29 °F

Location of HarrisburgLocation

Historic Weather in Harrisburg — Graph

°F

Harrisburg temperature yesterday

Maximum temperature yesterday: 44 °F (at 3:56 AM)
Minimum temperature yesterday: 33 °F (at 9:56 AM)
Average temperature yesterday: 37 °F

Past Weeks' High & Low Weather Summary

 TemperatureHumidityPressure
High70 °F (Nov 24, 12:56 PM)100% (Nov 12, 6:56 AM)30.54 "Hg (Nov 12, 6:56 AM)
Low17 °F (Nov 22, 4:56 AM)31% (Nov 18, 2:56 PM)29.52 "Hg (Nov 24, 12:56 PM)
Average38 °F59%30.09 "Hg
* Reported Nov 12 6:56 AM — Nov 27 6:56 AM, Harrisburg, Weather by CustomWeather, © 2014

Note: Actual official high and low records may vary slightly from our data, if they occured in-between our weather recording intervals... More about our weather records

Advertising

Harrisburg weather history for previous 24 hours

 ConditionsComfort  
Time TempWeatherWind HumidityBarometerVisibility
6:56 AM
Nov 27
33 °FPassing clouds.5 mph82%30.03 "Hg10 mi
5:56 AM34 °FOvercast.6 mph79%30.01 "Hg10 mi
4:56 AM34 °FPassing clouds.5 mph82%30.00 "Hg10 mi
3:56 AM34 °FOvercast.3 mph82%30.00 "Hg10 mi
2:56 AM35 °FOvercast.9 mph78%30.01 "Hg10 mi
1:56 AM35 °FMostly cloudy.9 mph78%30.00 "Hg10 mi
12:56 AM35 °FOvercast.9 mph82%29.99 "Hg10 mi
11:56 PM
Nov 26
35 °FMostly cloudy.7 mph78%29.98 "Hg10 mi
10:56 PM35 °FOvercast.9 mph78%29.98 "Hg10 mi
9:56 PM36 °FOvercast.8 mph79%29.96 "Hg10 mi
8:56 PM36 °FOvercast.8 mph79%29.95 "Hg10 mi
7:56 PM35 °FOvercast.10 mph85%29.96 "Hg10 mi
6:56 PM35 °FLight rain. Mostly cloudy.9 mph85%29.96 "Hg10 mi
5:56 PM34 °FLight snow. Fog.10 mph92%29.98 "Hg4 mi
4:56 PM34 °FLight snow. Fog.8 mph92%29.96 "Hg6 mi
3:56 PM33 °FLight snow. Fog.7 mph96%29.95 "Hg1 mi
2:58 PM34 °FLight snow. Fog.7 mph92%29.96 "Hg2 mi
2:00 PM34 °FLight snow. Fog.5 mph92%29.94 "Hg4 mi
12:56 PM33 °FSnow. Fog.No wind96%30.01 "Hg1 mi
11:56 AM33 °FSnow. Fog.No wind96%30.05 "Hg1 mi
10:56 AM33 °FSnow. Fog.No wind96%30.09 "Hg1 mi
10:04 AM33 °FLight snow. Fog.No wind96%30.11 "Hg1 mi
9:56 AM33 °FLight snow. Fog.No wind96%30.13 "Hg1 mi
8:56 AM36 °FRain. Fog.5 mph89%30.14 "Hg4 mi
Weather by CustomWeather, © 2014

See weather overviewHow to use our weather pages